Regional Weather Roundup
Issued by NWS

Home | Current Version | Previous Version | Graphics & Text | Print | Product List | Glossary On
Versions: 1 2 3 4 5 6 7 8 9 10 11 12 13 14 15 16 17 18 19 20 21 22 23 24 25 26 27 28 29 30 31 32 33 34 35 36 37 38 39 40 41 42 43 44 45 46 47 48 49 50
000
ASUS43 KDMX 281606
RWRIA

WEATHER ROUNDUP FOR IOWA
NATIONAL WEATHER SERVICE DES MOINES IA
1100 AM CDT TUE MAR 28 2017

NOTE: "FAIR" INDICATES FEW OR NO CLOUDS BELOW 12,000 FEET WITH NO
SIGNIFICANT WEATHER AND/OR OBSTRUCTIONS TO VISIBILITY.

* - THESE STATIONS ARE NOT NWS STATIONS...THUS NOT UNDER NWS
QUALITY CONTROL.  THEY ALSO DO NOT REPORT WEATHER SUCH
AS PRECIPITATION OR FOG.

IAZ001>003-012>014-020>022-031>034-043>046-281700-
   NORTHWEST IOWA

CITY           SKY/WX    TMP DP  RH WIND       PRES   REMARKS
CARROLL *      CLOUDY    48  45  87 E8        30.12R
CHEROKEE *     SUNNY     51  42  70 E7        30.13S
DENISON *      CLOUDY    48  41  76 E10       30.14R
LE MARS *      SUNNY     52  41  66 VRB5      30.14S
ORANGE CITY *  SUNNY     50  43  76 E6        30.13R
SHELDON *      SUNNY     50  41  71 E7        30.12R
SIOUX CITY     SUNNY     50  43  77 E5        30.13S
SPENCER        SUNNY     52  36  54 E9        30.13R
STORM LAKE *   SUNNY     48  41  76 NE8       30.12R
$$

IAZ055>058-069>071-079>083-090>094-281700-
   SOUTHWEST IOWA

CITY           SKY/WX    TMP DP  RH WIND       PRES   REMARKS
ATLANTIC *     CLOUDY    46  43  87 E8        30.12R
AUDUBON *      CLOUDY    46  43  87 E7        30.13R
CLARINDA *     CLOUDY    48  43  81 E6        30.14S
COUNCIL BLFS *   N/A     46  45  93 E8        30.12R
CRESTON *      CLOUDY    46  43  87 CALM      30.13R
HARLAN  *      CLOUDY    46  45  93 E9        30.15S
LAMONI         CLOUDY    49  41  74 N8        30.11R
RED OAK *      CLOUDY    46  41  81 E6G12     30.13R
SHENANDOAH *   CLOUDY    48  41  76 NE5       30.13R
$$

IAZ047>049-059>061-072>074-084-281700-
   CENTRAL IOWA

CITY           SKY/WX    TMP DP  RH WIND       PRES   REMARKS
AMES           CLOUDY    48  45  89 E7        30.12S
ANKENY *       CLOUDY    48  43  81 NE6       30.14R
BOONE *        CLOUDY    46  46 100 E8        30.11S
CHARITON *     CLOUDY    48  45  87 NE5       30.12R
DES MOINES     CLOUDY    49  43  80 NE5       30.13R
GRINNELL*      CLOUDY    47  43  87 NE6       30.14R
KNOXVILLE *    CLOUDY    48  41  76 VRB6      30.11R
MARSHALLTOWN   CLOUDY    48  44  86 NE9       30.12S
NEWTON *       CLOUDY    46  43  87 NE8       30.12R
PELLA *        PTSUNNY   49  43  79 NE5       30.13R
PERRY *        CLOUDY    47  43  86 NE6       30.13R
$$

IAZ004>006-015-016-023>025-035-036-281700-
   NORTH CENTRAL IOWA

CITY           SKY/WX    TMP DP  RH WIND       PRES   REMARKS
ALGONA *       SUNNY     48  45  87 E7        30.13S
CLARION *      PTSUNNY   48  46  93 E5        30.13R
ESTHERVILLE    SUNNY     49  40  71 E6        30.13R
FORT DODGE *   PTSUNNY   48  39  71 E6        30.13R
MASON CITY     MOSUNNY   47  39  74 E10       30.15R
FOREST CITY *    N/A     50  41  71 E7        30.14R
WEBSTER CITY * CLOUDY    48  43  81 E10       30.10F
IOWA FALLS *   CLOUDY    47  42  84 NE6       30.14S
$$

IAZ007>011-017>019-026>030-037>042-050>054-066-281700-
   NORTHEAST IOWA

CITY           SKY/WX    TMP DP  RH WIND       PRES   REMARKS
CEDAR RAPIDS   CLOUDY    49  44  83 E5        30.12R
CHARLES CITY * MOSUNNY   48  43  81 E3        30.14S
CLINTON *      CLOUDY    47  43  86 E12       30.14R
DECORAH *      PTSUNNY   46  39  76 CALM      30.13S
DUBUQUE        CLOUDY    45  42  89 NE8       30.14R
MONTICELLO *   CLOUDY    48  45  87 E6        30.13R
OELWEIN *      CLOUDY    50  45  81 E9        30.14R
WATERLOO       CLOUDY    50  42  74 E8        30.14R
$$

IAZ064-065-067-068-078-281700-
   EAST CENTRAL IOWA

CITY           SKY/WX    TMP DP  RH WIND       PRES   REMARKS
DAVENPORT      CLOUDY    47  45  93 E9        30.13R FOG
IOWA CITY      CLOUDY    52  43  71 NE3       30.14R
MUSCATINE *    CLOUDY    52  45  76 NE5       30.13R
QUAD CITIES    CLOUDY    48  45  89 E9        30.12R FOG
$$

IAZ062-063-075>077-085>089-095>099-281700-
   SOUTHEAST IOWA

CITY           SKY/WX    TMP DP  RH WIND       PRES   REMARKS
BURLINGTON     CLOUDY    51  47  86 NE3       30.11R
FAIRFIELD *    CLOUDY    50  45  81 NE10      30.11S
FORT MADISON * CLOUDY    52  52 100 NE5       30.11F
KEOKUK *       CLOUDY    52  48  87 NE9       30.10S
OSKALOOSA *    CLOUDY    48  44  85 NE7       30.12R
CENTERVILLE *  PTSUNNY   48  46  93 CALM      30.13R
OTTUMWA          N/A     49  45  86 NE9       30.11S
WASHINGTON *   CLOUDY    50  48  93 NE7       30.13S
$$

ABBREVIATIONS USED IN REMARKS
   TC - TEMPERATURES IN CELSIUS
  WCI - WIND CHILL INDEX
   HX - HEAT INDEX
  VSB - VISIBILITY
$$




USA.gov is the U.S. government's official web portal to all federal, state and local government web resources and services.